8,
Avoca, PA
on Tuesday, June 30, 2015

Tuesday
Previous Day Next Day
Daily Summary
 ActualAverageRecord
Temperature
Mean Temperature °F 70°F  
Max Temperature 74°F 81°F 97°F (1964)
Min Temperature 64°F 60°F 44°F (1923)
Degree Days
Heating Degree Days 0 0  
Month to date heating degree days 24 55  
Since 1 June heating degree days 24 54  
Since 1 July heating degree days 6268 6255  
Cooling Degree Days 4 6  
Month to date cooling degree days 155 117  
Year to date cooling degree days 303 154  
Since 1 June cooling degree days 155 117  
Growing Degree Days19 (Base °F )  
Moisture
Dew Point 63°F   
Average Humidity 79    
Maximum Humidity 87    
Minimum Humidity 73    
Precipitation
Precipitation 0.37 in 0.13 in 1.92 in (1990)
Month to date precipitation 6.15 4.03  
Year to date precipitation 15.71 17.83  
Since 1 June precipitation 6.15 4.03  
Wind
Wind Speed 4 mph   
Max Wind Speed 12 mph   
Max Gust Speed 21 mph   
Visibility 7.3 miles   
Events Rain , Thunderstorm   

Key: T is trace of precipitation, MM is missing value
Source: Averaged Metar Reports
Time(EDT)TemperatureDew PointHumidity Pressure Visibility Wind DirectionWind SpeedGust SpeedPrecipitationEvents Conditions
12:54 AM 66.9°F 59.0°F 76% 29.94 in 10.0 miles ESE 4.6 mph - 0.00 in   Overcast
1:54 AM 66.0°F 59.0°F 78% 29.94 in 10.0 miles East 4.6 mph - N/A   Overcast
2:54 AM 66.0°F 59.0°F 78% 29.93 in 10.0 miles East 3.5 mph - N/A   Overcast
3:54 AM 66.0°F 57.9°F 75% 29.92 in 10.0 miles East 4.6 mph - N/A   Overcast
4:54 AM 64.9°F 60.1°F 84% 29.91 in 6.0 miles ENE 6.9 mph - 0.01 in Rain Light Rain
5:54 AM 66.9°F 57.9°F 73% 29.91 in 10.0 miles NE 5.8 mph - 0.00 in   Overcast
6:54 AM 66.0°F 59.0°F 78% 29.92 in 10.0 miles ENE 5.8 mph - 0.02 in   Overcast
7:54 AM 66.9°F 60.1°F 79% 29.91 in 8.0 miles NNE 5.8 mph - N/A   Overcast
8:54 AM 66.9°F 62.1°F 84% 29.91 in 9.0 miles Calm Calm - 0.00 in Rain Light Rain
9:54 AM 66.9°F 61.0°F 81% 29.90 in 10.0 miles Variable 5.8 mph - 0.02 in   Overcast
10:16 AM 68.0°F 62.1°F 81% 29.92 in 4.0 miles Calm Calm - N/A   Haze
10:54 AM 70.0°F 62.1°F 76% 29.91 in 10.0 miles Calm Calm - 0.01 in   Overcast
11:45 AM 69.1°F 63.0°F 81% 29.93 in 10.0 miles WSW 4.6 mph - N/A   Overcast
11:54 AM 69.1°F 63.0°F 81% 29.91 in 10.0 miles SW 3.5 mph - N/A   Overcast
12:32 PM 70.0°F 64.9°F 84% 29.92 in 8.0 miles Calm Calm - N/A   Overcast
12:54 PM 72.0°F 64.9°F 78% 29.89 in 10.0 miles SSW 4.6 mph - N/A   Overcast
1:54 PM 73.0°F 64.9°F 76% 29.87 in 10.0 miles Variable 6.9 mph - 0.00 in Rain Light Rain
2:18 PM 72.0°F 64.9°F 78% 29.89 in 1.5 miles SW 6.9 mph - 0.01 in Rain Heavy Rain
2:30 PM 72.0°F 66.0°F 81% 29.87 in 4.0 miles Calm Calm - 0.13 in Rain Light Rain
2:54 PM 72.0°F 66.0°F 81% 29.86 in 4.0 miles NNW 8.1 mph - 0.13 in Rain Rain
3:42 PM 71.1°F 66.9°F 87% 29.87 in 8.0 miles NNE 5.8 mph - 0.03 in Thunderstorm Overcast
3:54 PM 71.1°F 66.0°F 84% 29.85 in 8.0 miles Variable 3.5 mph - 0.03 in   Overcast
4:26 PM 72.0°F 66.9°F 84% 29.86 in 5.0 miles Calm Calm - 0.00 in Rain , Thunderstorm Light Thunderstorms and Rain
4:32 PM 71.1°F 66.9°F 87% 29.87 in 2.5 miles Calm Calm - 0.00 in Rain , Thunderstorm Light Thunderstorms and Rain
4:39 PM 71.1°F 66.0°F 84% 29.86 in 1.0 miles Calm Calm - 0.08 in Rain , Thunderstorm Heavy Thunderstorms and Rain
4:47 PM 71.1°F 66.0°F 84% 29.86 in 1.2 miles Calm Calm - 0.09 in Rain Heavy Rain
4:54 PM 71.1°F 66.9°F 87% 29.83 in 1.8 miles ENE 3.5 mph - 0.14 in Rain Rain
4:56 PM 71.1°F 66.9°F 87% 29.85 in 3.0 miles ENE 3.5 mph - 0.00 in Rain Light Rain
5:54 PM 73.9°F 64.9°F 73% 29.80 in 10.0 miles East 6.9 mph - 0.00 in   Partly Cloudy
6:54 PM 72.0°F 63.0°F 73% 29.81 in 10.0 miles ESE 5.8 mph - 0.01 in   Mostly Cloudy
7:54 PM 71.1°F 63.0°F 75% 29.81 in 10.0 miles ESE 3.5 mph - N/A   Overcast
8:54 PM 69.1°F 63.0°F 81% 29.81 in 10.0 miles NNE 5.8 mph - N/A   Partly Cloudy
Astronomy
Sunrise:05:32 AM (EDT) Moon Rise:07:12 PM (EDT)6/30
Sunset:08:40 PM (EDT) Moon Set:04:23 AM (EDT)6/30
Moon Phase
Jun. 30 Jul. 02 Jul. 08 Jul. 16 Jul. 24

Copyright © 2015 The Weather Underground, Inc.
8,